This is the latest recevied weather packets stored in our database for station/object N7NIP. If no packets are shown the sender has not sent any weather packets the latest 10 day(s).
| Time | Temp. | Humidity | Pressure | Rain* | Wind** | Luminosity | Snow |
|---|---|---|---|---|---|---|---|
| 1778116506 | 13.89° C | 73% | 1034.3 hPa | 0 mm | - | 126 W/m² | - |
| 1778116202 | 13.89° C | 76% | 1034.5 hPa | 0 mm | - | 153 W/m² | - |
| 1778115896 | 13.89° C | 74% | 1034.4 hPa | 0 mm | - | 125 W/m² | - |
| 1778115593 | 13.89° C | 77% | 1034.5 hPa | 0 mm | - | 132 W/m² | - |
| 1778115291 | 13.89° C | 74% | 1034.5 hPa | 0 mm | - | 145 W/m² | - |
| 1778114987 | 13.89° C | 77% | 1034.6 hPa | 0 mm | - | 152 W/m² | - |
| 1778114684 | 13.89° C | 75% | 1034.4 hPa | 0 mm | - | 133 W/m² | - |
| 1778114382 | 13.89° C | 77% | 1034.4 hPa | 0 mm | - | 149 W/m² | - |
| 1778114077 | 13.89° C | 76% | 1034.5 hPa | 0 mm | - | 177 W/m² | - |
| 1778113772 | 13.89° C | 76% | 1034.6 hPa | 0 mm | - | 207 W/m² | - |
| 1778113468 | 13.89° C | 77% | 1034.5 hPa | 0 mm | - | 202 W/m² | - |
| 1778113166 | 13.89° C | 77% | 1034.3 hPa | 0 mm | - | 173 W/m² | - |
| 1778112862 | 13.89° C | 78% | 1034.6 hPa | 0 mm | - | 210 W/m² | - |
| 1778112560 | 13.89° C | 77% | 1034.5 hPa | 0 mm | - | 178 W/m² | - |
| 1778112255 | 13.89° C | 79% | 1034.6 hPa | 0 mm | - | 156 W/m² | - |
| 1778111951 | 13.89° C | 79% | 1034.6 hPa | 0 mm | - | 117 W/m² | - |
| 1778111649 | 13.89° C | 79% | 1034.5 hPa | 0 mm | - | 146 W/m² | - |
| 1778111344 | 13.33° C | 79% | 1034.6 hPa | 0 mm | - | 143 W/m² | - |
| 1778111042 | 13.33° C | 79% | 1034.3 hPa | 0 mm | - | 156 W/m² | - |
| 1778110739 | 13.89° C | 79% | 1034.5 hPa | 0 mm | - | 107 W/m² | - |
| 1778110435 | 13.89° C | 79% | 1034.5 hPa | 0 mm | - | 115 W/m² | - |
| 1778110132 | 13.89° C | 79% | 1034.4 hPa | 0 mm | - | 108 W/m² | - |
| 1778109828 | 13.89° C | 78% | 1034.6 hPa | 0 mm | - | 129 W/m² | - |
| 1778109524 | 13.89° C | 77% | 1034.4 hPa | 0 mm | - | 113 W/m² | - |
| 1778109222 | 13.89° C | 78% | 1034.6 hPa | 0 mm | - | 210 W/m² | - |
* Rain latest hour (hover to see other rain measurements)
** Current wind speed in m/s (hover to see current wind gust speed)